Погода в Жатеце

Чехия     50°19′23″N   13°32′36″E
темп.,
°C
ветер,
м/с
пор.,
м/с
влажн.,
%
обл.,
%
осадки,
мм/ч
давл.,
гПа
погр.,
м
24 сентября, пт
пт2423:00+16з71459100 0.0 1013737
02:00+15з7137060 0.0 1013753
05:00+15зсз6127583 0.1 10141216
08:00+14зсз6127475 0.1 10151039
11:00+18зсз7105762 0.0 10161418
14:00+17зсз61065100 0.1 10161327
17:00+18з476598 0.0 10161139
20:00+16зюз477986 0.0 1017301
25 сентября, сб
сб2523:00+14юз368714 0.0 1017128
02:00+13юз36900 0.0 1017122
05:00+12юз33910 0.0 101755
08:00+12юз25880 0.0 1018167
11:00+19з33630 0.0 1018719
14:00+22зюз23500 0.0 10171277
17:00+22юз22482 0.0 10171273
20:00+17юз22695 0.0 101812
26 сентября, вс
вс2623:00+14ссз0180100 0.0 101911
02:00+13сз00872 0.0 101910
05:00+12з118932 0.0 101910
08:00+13вюв118742 0.0 101914
11:00+18в226191 0.0 1019428
14:00+22вюв124794 0.0 1018791
17:00+23всв22445 0.0 1016931
20:00+17всв11665 0.0 101611
27 сентября, пн
пн2723:00+16зсз117448 0.0 101711
02:00+14зсз118091 0.0 101711
05:00+14зюз118185 0.0 101711
08:00+15з1182100 0.0 101848
11:00+18зсз2370100 0.0 1019523
14:00+21зсз3362100 0.4 10181032
17:00+20сз346267 1.5 1019993
20:00+15з228112 1.5 102032
28 сентября, вт
вт2823:00+14з22895 0.0 102213
02:00+13зсз229078 0.0 102330
05:00+14ссз358597 0.0 1023253
08:00+12ссз358350 0.0 1024235
11:00+16с336025 0.0 1024550
14:00+18св225134 0.0 10221159
17:00+18в2255100 0.0 10211242
20:00+15всв2562100 0.0 1021158